Grazzanise, Italy

1:38 PM CEST on June 27, 2017 (GMT +0200)
Grazzanise Mil

Weather History for LIRM - March, 2014

Change the Weather History Date:

Saturday, March 8, 2014

  Actual Average (LIRN) Record (LIRN)
Temperature  
Mean Temperature 51 °F -  
Max Temperature 63 °F 61 °F 69 °F (2002)
Min Temperature 39 °F 43 °F 32 °F (2006)
Degree Days  
Heating Degree Days 14    
Growing Degree Days 1 (Base 50)    
Moisture  
Dew Point 45 °F    
Average Humidity 81    
Maximum Humidity 99    
Minimum Humidity 51    
Precipitation  
Precipitation 0.00 in 0.09 in - ()
Sea Level Pressure  
Sea Level Pressure 30.12 in    
Wind  
Wind Speed 7 mph ()    
Max Wind Speed 15 mph    
Max Gust Speed -    
Visibility 7.6 miles    
Events      
Averages and records for this station are not official NWS values.
T = Trace of Precipitation, MM = Missing Value Source: Averaged Metar Reports

Daily Weather History Graph

Daily Weather History Graph

Search for Another Location

Airport or City:

Trip Planner

Search our weather history database for the weather conditions in past years. The results will help you decide how hot, cold, wet, or windy it might be!

Date:

Astronomy

Mar. 08, 2014 Rise Set
Actual Time 6:27 AM CET 6:02 PM CET
Civil Twilight 5:59 AM CET 6:29 PM CET
Nautical Twilight 5:28 AM CET 7:01 PM CET
Astronomical Twilight 4:56 AM CET 7:33 PM CET
Moon 10:51 AM CET (3/8) 12:48 AM CET (3/8)
Length of Visible Light 12h 30m
Length of Day
11h 35m
Waxing Crescent, 49% of the Moon is Illuminated
Mar 8
Waxing Crescent
Mar 8
First Quarter
Mar 16
Full
Mar 24
Last Quarter
Mar 30
New

Hourly Weather History & Observations

Time (CET) Temp. Windchill Dew Point Humidity Pressure Visibility Wind Dir Wind Speed Gust Speed Precip Events Conditions
12:55 AM 42.8 °F 41.1 °F 41.0 °F 93% 30.06 in - NNE 3.5 mph - N/A   Clear
1:00 AM 42 °F - 42 °F 99% 30.09 in 6 mi NNE 3.5 mph - -  
1:55 AM 42.8 °F 40.1 °F 41.0 °F 93% 30.06 in - North 4.6 mph - N/A   Clear
2:55 AM 41.0 °F 37.1 °F 39.2 °F 93% 30.06 in - NE 5.8 mph - N/A   Clear
3:55 AM 41.0 °F 37.1 °F 39.2 °F 93% 30.06 in - ENE 5.8 mph - N/A   Clear
4:00 AM 41 °F - 40 °F 94% 30.09 in 6 mi ENE 5.8 mph - -   Clear
4:55 AM 42.8 °F 41.1 °F 41.0 °F 93% 30.09 in - East 3.5 mph - N/A   Clear
5:55 AM 41.0 °F 36.4 °F 39.2 °F 93% 30.06 in - North 6.9 mph - N/A   Clear
6:55 AM 41.0 °F 36.4 °F 39.2 °F 93% 30.06 in - NNE 6.9 mph - N/A   Clear
7:00 AM 41 °F - 38 °F 86% 30.08 in 9 mi NNE 6.9 mph - -   Partly Cloudy
7:55 AM 48.2 °F - 44.6 °F 87% 30.09 in - NE 6.9 mph - N/A   Clear
8:55 AM 53.6 °F - 48.2 °F 82% 30.06 in 6.2 mi North 4.6 mph - N/A   Partly Cloudy
9:55 AM 59.0 °F - 51.8 °F 77% 30.09 in 6.2 mi ENE 11.5 mph - N/A   Partly Cloudy
10:00 AM 59 °F - 52 °F 71% 30.12 in 12 mi ENE 11.5 mph - -   Scattered Clouds
10:55 AM 60.8 °F - 48.2 °F 63% 30.09 in 6.2 mi ENE 11.5 mph - N/A   Partly Cloudy
11:55 AM 59.0 °F - 48.2 °F 67% 30.09 in 6.2 mi NNE 13.8 mph - N/A   Mostly Cloudy
12:55 PM 59.0 °F - 46.4 °F 63% 30.12 in 6.2 mi ENE 13.8 mph - N/A   Scattered Clouds
1:00 PM 60 °F - 47 °F 51% 30.13 in 12 mi ENE 13.8 mph - -   Overcast
1:55 PM 59.0 °F - 46.4 °F 63% 30.12 in 6.2 mi ENE 15.0 mph - N/A   Scattered Clouds
2:55 PM 57.2 °F - 48.2 °F 72% 30.12 in 6.2 mi ENE 15.0 mph - N/A   Scattered Clouds
3:55 PM 57.2 °F - 48.2 °F 72% 30.12 in 6.2 mi ENE 9.2 mph - N/A   Mostly Cloudy
4:00 PM 58 °F - 49 °F 62% 30.14 in 12 mi ENE 9.2 mph - -   Partly Cloudy
4:55 PM 57.2 °F - 50.0 °F 77% 30.12 in 6.2 mi NE 9.2 mph - N/A   Scattered Clouds
5:55 PM 53.6 °F - 48.2 °F 82% 30.12 in 6.2 mi ENE 9.2 mph - N/A   Partly Cloudy
6:55 PM 51.8 °F - 48.2 °F 88% 30.15 in 6.2 mi ENE 9.2 mph - N/A   Partly Cloudy
7:00 PM 52 °F - 48 °F 83% 30.17 in 12 mi ENE 9.2 mph - -   Scattered Clouds
7:55 PM 50.0 °F - 44.6 °F 82% 30.21 in 6.2 mi NNE 5.8 mph - N/A   Partly Cloudy
8:55 PM 50.0 °F - 44.6 °F 82% 30.21 in 6.2 mi ENE 8.1 mph - N/A   Partly Cloudy
9:55 PM 48.2 °F - 44.6 °F 87% 30.21 in 6.2 mi ENE 10.4 mph - N/A   Partly Cloudy
10:00 PM 48 °F - 45 °F 87% 30.23 in 12 mi ENE 10.4 mph - -   Scattered Clouds
10:55 PM 48.2 °F - 44.6 °F 87% 30.21 in - ENE 4.6 mph - N/A   Clear
11:55 PM 44.6 °F - 42.8 °F 93% 30.21 in - Variable 2.3 mph - N/A   Clear